Location: Northcutt
(34.7304°N, 84.4305°W)
Time: 05:35:08
(UTC+00:00)

Vanguard 2 - Pass Details

Date: 06 October 2022
Orbit: 553 x 2933 km, 32.9° (Epoch: 04 December)

Event Time Altitude Azimuth Distance (km) Brightness Sun altitude
Rises 15:33:20 0° 211° (SSW) 3,580 11.2 42.0°
Reaches altitude 10° 15:35:51 10° 199° (SSW) 2,892 11.0 42.3°
Maximum altitude 15:42:05 31° 140° (SE) 2,323 12.1 43.1°
Drops below altitude 10° 15:51:29 10° 85° (E) 4,463 11.8 44.2°
Sets 15:56:26 0° 77° (ENE) 5,874 12.2 44.8°
